Location: Sevilla
(37.3933°N, 5.9839°W)
Time: 02:51:01
(UTC+02:00)

Vanguard 3 - Pass Details

Date: 04 July 2024
Orbit: 508 x 3230 km, 33.3° (Epoch: 24 July)

Event Time Altitude Azimuth Distance (km) Brightness Sun altitude
Rises 04:29:23 0° 202° (SSW) 6,817 - -23.4°
Reaches altitude 10° 04:34:51 10° 191° (SSW) 6,013 - -22.8°
Exits shadow 04:39:14 18° 181° (S) 5,458 10.8 -22.4°
Maximum altitude 04:49:48 28° 141° (SE) 4,705 10.8 -21.2°
Drops below altitude 10° 05:03:23 10° 91° (E) 5,522 11.8 -19.6°
Sets 05:08:00 0° 81° (E) 6,205 12.4 -19.0°
